Voltar ao catálogo

STARLINK-37350

AtivoComunicaçõesSSO
NORAD 68750·PAYLOAD·🇺🇸 United States

Lançado Apr 15, 2026 de Vandenberg Space Force Base

Loading…

Próximas Passagens (próximas 24 horas)

TLE

AtualizadoSource: CelesTrak SupGP

Época: Sep 14, 2026, 15:56 UTC

1 68750C 26082Y   26257.66437500 -.00043569  00000+0 -13525-2 0  2570
2 68750  97.2840 118.9125 0002281  88.5594  21.1466 15.33459466    14

Acompanhe STARLINK-37350 em tempo real com AllMySat

Download on the App Store